Wind_Speed
9 9 9 9 9 9 9 9 9 10 10 10 10 10 10 10 10 11 11 11 12 12 12 13 13 13 14 14 14 14 13 13 13 13 13 14 14 14 14 14 14 15 15
9 9 9 9 9 9 9 9 10 11 11 11 11 11 11 11 11 11 12 12 12 12 12 13 13 13 13 13 14 14 14 14 14 14 14 14 14 15 14 14 14 14 14
9 9 10 10 10 10 10 10 11 11 11 11 11 11 11 11 11 12 12 12 12 12 12 13 13 14 14 14 14 14 14 13 14 13 14 13 14 15 15 14 13 13 14
9 9 9 9 10 10 10 10 10 11 11 11 11 11 11 12 12 12 12 13 13 13 13 13 13 14 14 14 14 14 14 13 13 13 14 14 14 15 15 14 15 15 15
9 8 8 8 9 10 10 10 10 11 11 11 11 11 11 12 12 12 12 13 13 14 14 14 14 15 15 15 14 14 14 14 14 14 14 14 15 15 15 15 16 16 16
8 8 8 9 9 10 10 10 10 10 11 11 11 11 11 11 12 12 12 12 13 14 15 15 15 15 15 15 15 14 14 14 15 15 14 14 14 15 15 15 15 16 16
9 9 9 10 10 11 11 11 10 10 10 10 11 11 12 12 12 12 13 13 14 14 15 16 16 15 15 15 15 15 14 14 14 15 15 15 14 14 15 15 15 15 15
9 10 10 11 11 11 11 11 11 11 11 11 11 12 12 12 12 13 13 14 14 14 15 15 15 15 15 15 14 14 14 14 13 13 15 15 15 15 15 16 16 17 17
10 11 11 11 12 12 12 12 11 12 12 12 12 12 13 13 14 14 14 15 15 15 15 15 15 15 14 13 13 13 13 14 14 14 15 15 15 15 15 16 16 17 17
11 11 12 12 12 13 13 13 13 13 13 13 13 13 14 14 14 15 16 16 17 17 16 16 16 15 15 14 14 14 14 15 15 16 16 17 17 16 16 16 16 16 17
12 12 13 13 13 13 13 14 14 14 14 14 14 14 15 15 16 16 16 17 18 18 18 18 17 16 16 16 16 16 16 16 16 17 17 18 18 18 18 17 17 17 17
12 13 13 14 14 14 14 14 15 15 15 15 15 16 16 16 17 18 18 18 19 19 19 19 19 18 17 17 18 18 18 18 18 19 19 19 19 19 19 19 18 18 18
14 15 14 14 15 15 15 15 16 16 16 16 16 16 17 18 18 18 19 19 19 19 19 20 20 20 20 19 19 20 20 20 20 20 20 21 21 21 20 20 20 20 20
16 16 16 15 16 16 17 16 17 17 17 17 17 17 18 18 19 19 20 20 20 19 20 20 20 20 21 20 20 21 21 21 21 21 21 22 22 22 22 22 22 21 21
17 18 18 17 18 18 18 18 17 18 18 18 19 19 19 20 20 21 21 21 20 20 20 20 20 21 21 21 21 21 22 22 22 22 22 22 22 22 22 22 23 22 22
18 18 19 19 19 20 20 19 19 19 19 20 20 20 21 21 21 22 22 22 21 21 20 20 21 21 21 21 22 22 22 23 23 23 23 22 22 22 22 22 23 23 23
20 19 19 20 21 21 22 21 21 21 21 22 23 23 23 23 22 22 23 23 22 22 21 21 21 22 21 22 22 23 23 23 22 22 22 23 23 24 24 24 24 24 25
22 22 22 22 22 22 23 23 23 23 23 23 24 25 25 24 23 23 23 23 23 22 22 22 21 22 22 23 23 24 24 23 23 24 24 24 25 25 25 26 26 26 26
23 23 24 24 23 24 24 24 24 24 25 24 25 26 25 24 24 24 23 24 24 23 23 23 23 23 24 24 24 24 25 25 25 26 26 26 26 27 27 26 27 27 27
25 25 25 25 25 25 25 25 25 25 25 25 25 25 25 25 25 25 24 24 24 24 24 24 24 24 24 25 25 25 25 26 26 27 27 27 27 28 28 27 28 28 29
26 26 26 26 26 26 26 26 26 26 26 26 26 26 26 26 26 26 25 25 25 25 25 25 25 25 25 25 26 26 26 26 26 27 28 28 29 29 29 29 29 30 30
26 26 27 27 27 27 27 27 27 27 27 27 27 26 26 27 27 27 26 27 27 26 26 26 26 26 25 26 26 25 26 26 27 28 29 30 30 30 31 31 31 31 31
26 26 27 27 28 27 28 28 28 27 27 27 27 28 28 27 27 28 28 28 28 28 28 27 27 27 27 27 27 27 28 28 29 29 30 31 31 31 32 32 32 33 33
26 26 26 27 28 29 29 28 27 27 27 27 28 28 28 29 29 29 29 29 29 29 29 29 28 29 29 29 29 29 29 29 30 31 32 32 33 32 32 33 33 33 33
27 27 27 28 28 29 29 30 29 29 29 28 28 28 29 29 29 29 29 29 29 29 29 29 30 30 30 30 30 30 30 31 31 31 32 33 33 33 33 33 33 33 34
27 27 27 28 28 28 29 29 30 30 30 30 30 30 30 30 30 30 30 30 29 30 30 30 31 31 31 31 31 31 31 31 32 32 33 33 33 34 33 33 33 32 32
Wind_Direction
290 290 286 286 285 285 283 280 278 281 282 282 283 282 280 280 280 281 282 281 280 278 278 278 278 280 280 278 275 273 273 271 269 267 265 263 262 261 262 261 257 254 250
285 288 287 286 283 282 280 279 284 287 284 282 282 279 277 278 278 279 280 281 283 283 279 278 279 279 278 279 277 274 273 272 270 268 266 262 261 260 259 259 255 252 249
286 290 291 290 288 287 284 283 286 287 285 284 284 280 277 278 280 279 279 279 280 281 282 278 277 277 276 275 276 275 273 271 268 267 265 261 258 256 255 254 252 250 249
288 291 293 294 293 293 293 285 285 285 285 284 283 283 280 279 281 281 280 279 278 279 281 278 277 278 277 275 276 275 270 267 265 264 264 261 259 256 255 253 252 251 250
288 292 295 294 294 295 294 289 286 286 285 284 286 286 285 283 282 283 282 281 278 277 278 279 279 279 278 275 275 272 269 265 265 265 264 262 260 258 255 255 255 254 252
288 291 294 294 294 295 297 295 289 287 288 287 287 289 289 288 285 285 286 286 284 282 280 281 280 278 280 280 276 272 267 265 263 263 264 266 266 261 259 259 258 255 253
289 291 295 297 294 296 297 297 294 289 287 286 289 291 290 288 286 287 289 288 286 285 285 283 281 280 279 278 275 271 268 265 263 262 264 265 266 265 263 262 261 260 258
289 289 290 294 293 292 293 293 292 290 289 288 289 292 292 291 289 289 290 290 287 287 286 285 284 281 281 279 274 270 269 268 268 266 265 264 263 262 262 261 261 261 261
289 293 290 289 290 290 290 290 290 289 290 290 290 291 291 290 290 290 291 291 289 289 288 286 283 282 281 279 275 271 269 268 267 267 268 268 265 261 263 263 262 262 263
284 287 288 289 289 288 288 289 289 287 287 289 289 289 290 290 292 293 291 290 289 287 286 285 282 279 278 276 274 270 268 268 268 268 268 269 268 267 268 268 268 266 263
283 286 287 287 285 285 286 288 289 288 286 287 288 289 290 289 290 290 289 290 290 287 285 283 281 278 277 275 274 272 269 269 268 268 269 269 269 269 270 272 270 268 266
283 285 287 287 287 284 286 286 286 287 287 286 286 287 289 289 289 288 289 290 292 291 286 284 282 280 277 275 275 275 273 272 270 269 270 269 268 268 269 270 269 269 268
281 284 283 285 285 285 285 286 288 287 287 286 286 286 287 288 288 289 289 290 289 288 286 285 282 280 279 277 274 274 274 274 275 272 271 271 270 269 269 269 268 268 267
278 281 282 281 280 281 284 285 285 286 287 287 287 287 288 289 289 289 289 288 287 286 284 283 283 282 281 279 277 276 275 276 277 275 273 272 271 270 271 271 270 269 268
278 279 281 280 278 278 281 283 284 285 286 287 287 287 287 288 288 289 290 289 287 286 284 282 282 282 280 278 277 276 276 277 277 276 273 272 271 270 271 271 270 270 269
278 279 280 279 279 279 281 283 284 285 286 286 287 287 287 288 288 289 291 291 290 288 285 283 283 281 279 279 278 277 276 276 276 275 273 271 271 271 271 271 270 269 268
277 278 279 281 280 279 281 283 284 285 285 286 286 288 288 287 288 289 290 291 289 286 283 283 283 283 281 279 278 278 278 277 275 274 273 272 272 272 272 271 271 270 269
277 279 279 280 280 278 279 281 281 282 282 284 285 286 287 286 287 288 288 289 288 286 284 283 283 284 284 281 279 279 277 277 274 273 273 273 274 273 272 271 271 270 269
277 279 280 279 279 278 279 280 280 281 281 282 284 285 285 285 287 287 286 286 286 287 286 284 283 284 283 282 281 279 276 276 274 273 272 272 273 273 273 272 271 270 268
276 277 279 280 280 279 278 278 278 279 281 282 283 284 284 286 286 285 285 285 286 287 286 285 285 285 285 283 282 280 276 275 275 274 272 271 272 272 273 274 274 272 270
277 276 277 279 280 279 278 278 278 279 281 281 282 285 286 285 284 284 284 284 284 285 285 285 286 286 286 285 283 281 278 277 276 275 273 271 272 272 272 273 274 274 272
279 277 277 278 279 279 279 278 278 278 280 281 283 284 284 283 283 282 282 283 284 284 284 284 284 284 285 285 283 281 280 279 277 275 274 273 273 274 273 274 274 274 273
282 280 280 279 279 280 280 279 278 278 279 281 281 283 284 284 283 282 281 282 283 284 284 285 283 283 283 283 283 281 280 279 279 277 276 275 275 275 275 274 274 274 273
281 281 282 281 280 280 280 280 279 277 278 280 281 281 281 283 284 283 282 282 283 283 284 284 284 284 283 283 283 282 282 281 281 280 278 277 275 275 275 274 273 272 272
279 281 282 282 281 281 280 281 281 279 278 279 281 281 282 282 283 283 282 282 282 282 281 282 283 283 282 282 283 282 282 283 282 280 280 279 276 275 275 275 274 274 273
279 281 282 282 282 282 281 281 282 281 280 280 282 283 283 282 282 282 282 282 281 281 281 281 281 282 283 283 283 283 283 283 283 282 281 280 278 276 274 273 274 273 273
Height
5845 5845 5844 5843 5843 5843 5842 5842 5842 5841 5841 5841 5840 5840 5840 5840 5839 5839 5839 5839 5839 5838 5838 5838 5837 5837 5837 5837 5837 5837 5837 5837 5837 5838 5838 5838 5839 5839 5840 5840 5841 5842 5843
5843 5842 5842 5841 5841 5840 5840 5839 5839 5839 5838 5838 5838 5838 5837 5837 5837 5836 5836 5836 5836 5835 5835 5835 5834 5834 5834 5834 5834 5834 5834 5834 5834 5834 5835 5835 5835 5835 5836 5837 5837 5838 5839
5840 5840 5839 5839 5838 5837 5837 5837 5836 5836 5835 5835 5835 5835 5834 5834 5834 5833 5833 5833 5833 5832 5831 5831 5831 5831 5831 5831 5831 5831 5831 5831 5831 5831 5831 5831 5832 5832 5832 5833 5834 5835 5836
5838 5837 5837 5836 5835 5835 5834 5834 5833 5833 5832 5832 5832 5831 5831 5831 5831 5830 5830 5829 5829 5829 5828 5827 5827 5827 5827 5827 5827 5827 5827 5827 5827 5828 5828 5828 5828 5829 5829 5830 5831 5831 5832
5835 5835 5834 5834 5833 5832 5832 5831 5831 5830 5830 5829 5829 5829 5828 5828 5827 5827 5826 5826 5826 5825 5825 5824 5824 5823 5823 5823 5823 5823 5823 5824 5824 5824 5825 5825 5825 5826 5826 5827 5827 5828 5829
5833 5833 5832 5831 5831 5830 5829 5829 5828 5827 5827 5826 5826 5826 5825 5825 5824 5824 5823 5823 5822 5822 5821 5820 5820 5819 5819 5818 5818 5819 5819 5820 5820 5821 5821 5821 5821 5822 5822 5823 5824 5824 5825
5831 5830 5829 5829 5828 5828 5827 5826 5825 5825 5824 5824 5823 5823 5822 5822 5821 5820 5820 5819 5819 5818 5817 5816 5816 5815 5815 5814 5813 5814 5815 5816 5816 5817 5817 5818 5818 5818 5819 5819 5820 5821 5822
5828 5827 5827 5826 5825 5825 5824 5823 5823 5822 5821 5821 5820 5820 5819 5819 5818 5817 5816 5816 5815 5814 5813 5812 5812 5811 5810 5809 5809 5809 5810 5811 5812 5813 5813 5813 5814 5814 5815 5815 5816 5816 5817
5825 5825 5824 5823 5822 5822 5821 5820 5820 5819 5818 5818 5817 5817 5816 5815 5814 5814 5812 5812 5811 5810 5809 5808 5808 5807 5806 5805 5805 5806 5807 5808 5809 5809 5809 5809 5810 5810 5811 5812 5812 5812 5813
5822 5821 5821 5820 5819 5819 5818 5817 5817 5816 5815 5814 5814 5813 5812 5811 5810 5810 5809 5807 5806 5805 5804 5804 5803 5803 5802 5802 5802 5803 5803 5804 5804 5805 5805 5805 5805 5806 5807 5807 5808 5808 5809
5818 5818 5817 5816 5816 5815 5814 5814 5813 5812 5811 5811 5810 5809 5808 5807 5806 5806 5805 5803 5802 5800 5799 5799 5798 5798 5798 5798 5798 5799 5799 5799 5800 5800 5800 5801 5801 5801 5802 5802 5803 5803 5804
5815 5814 5813 5813 5812 5811 5811 5810 5809 5808 5808 5807 5806 5805 5804 5803 5802 5801 5800 5798 5797 5795 5794 5793 5793 5793 5792 5793 5793 5793 5794 5794 5795 5795 5795 5796 5796 5797 5797 5798 5798 5799 5799
5811 5810 5809 5809 5808 5807 5807 5806 5805 5804 5803 5802 5801 5800 5799 5798 5797 5796 5795 5793 5792 5790 5789 5788 5787 5787 5787 5787 5787 5788 5788 5789 5789 5789 5789 5790 5790 5791 5792 5792 5792 5793 5793
5806 5806 5805 5804 5804 5803 5802 5801 5800 5799 5799 5798 5797 5796 5795 5793 5792 5791 5790 5788 5787 5785 5784 5783 5782 5781 5781 5781 5781 5782 5782 5783 5783 5783 5783 5783 5784 5784 5785 5785 5786 5787 5787
5801 5801 5800 5799 5799 5798 5797 5796 5795 5794 5794 5793 5792 5791 5789 5788 5787 5785 5784 5782 5781 5780 5778 5777 5776 5775 5775 5775 5775 5776 5776 5776 5777 5777 5777 5777 5777 5778 5778 5779 5779 5780 5780
5796 5795 5795 5794 5794 5793 5792 5791 5790 5789 5788 5787 5786 5785 5784 5782 5781 5779 5777 5776 5774 5773 5772 5771 5770 5769 5769 5769 5769 5769 5770 5770 5770 5770 5770 5770 5771 5771 5772 5772 5772 5773 5773
5790 5790 5789 5788 5788 5787 5786 5785 5785 5784 5783 5781 5780 5779 5778 5776 5775 5773 5771 5769 5768 5767 5766 5765 5764 5763 5763 5763 5763 5763 5763 5763 5763 5763 5763 5763 5764 5764 5765 5765 5765 5765 5765
5784 5784 5783 5782 5782 5781 5780 5779 5779 5778 5776 5775 5774 5772 5771 5770 5768 5766 5765 5763 5762 5760 5760 5759 5758 5757 5756 5756 5756 5756 5755 5755 5755 5756 5756 5756 5756 5756 5757 5757 5757 5757 5757
5777 5777 5776 5775 5775 5774 5773 5772 5771 5771 5770 5768 5767 5766 5764 5763 5761 5760 5758 5757 5756 5754 5753 5753 5752 5751 5750 5749 5749 5748 5748 5748 5748 5748 5748 5748 5748 5748 5748 5748 5748 5749 5749
5770 5769 5769 5768 5767 5766 5765 5764 5764 5763 5762 5761 5760 5759 5757 5756 5754 5753 5752 5750 5749 5748 5747 5746 5745 5744 5743 5742 5741 5741 5740 5740 5740 5740 5740 5740 5740 5740 5740 5740 5740 5740 5740
5762 5762 5761 5760 5759 5758 5757 5757 5756 5755 5755 5754 5753 5751 5750 5748 5747 5746 5745 5743 5742 5741 5740 5739 5738 5737 5736 5735 5734 5733 5732 5732 5732 5731 5731 5731 5731 5731 5731 5731 5731 5731 5731
5754 5753 5752 5752 5751 5750 5749 5749 5748 5747 5747 5746 5745 5744 5742 5741 5739 5738 5737 5736 5735 5734 5733 5732 5730 5729 5728 5727 5726 5725 5724 5724 5724 5723 5723 5723 5722 5722 5722 5721 5721 5721 5721
5746 5745 5744 5743 5742 5741 5741 5740 5739 5739 5738 5738 5737 5736 5734 5733 5731 5730 5729 5728 5727 5725 5725 5724 5722 5721 5720 5719 5718 5717 5716 5715 5715 5714 5714 5713 5712 5712 5711 5711 5711 5711 5711
5738 5737 5736 5735 5734 5733 5732 5731 5730 5730 5729 5729 5728 5727 5726 5724 5723 5722 5721 5720 5718 5717 5716 5715 5714 5713 5711 5710 5709 5708 5707 5706 5706 5704 5703 5703 5702 5701 5701 5700 5700 5700 5700
5730 5728 5727 5726 5725 5724 5723 5722 5721 5721 5720 5719 5719 5718 5717 5716 5715 5713 5713 5711 5710 5709 5707 5706 5705 5703 5702 5701 5700 5699 5698 5697 5696 5695 5693 5692 5691 5690 5690 5690 5689 5688 5688
5721 5720 5719 5718 5717 5716 5714 5713 5712 5712 5711 5710 5709 5708 5707 5706 5705 5704 5703 5702 5702 5700 5699 5697 5696 5694 5693 5691 5690 5689 5688 5686 5685 5684 5683 5681 5680 5679 5679 5679 5678 5678 5677